Regional Weather Roundup
Issued by NWS State College, PA

Home | Current Version | Previous Version | Graphics & Text | Print | Product List | Glossary On
Versions: 1 2 3 4 5 6 7 8 9 10 11 12 13 14 15 16 17 18 19 20 21 22 23 24 25 26 27 28 29 30 31 32 33 34 35 36 37 38 39 40 41 42 43 44 45 46 47 48 49 50
000
ASUS41 KCTP 010610
RWRCTP

REGIONAL WEATHER ROUNDUP
NATIONAL WEATHER SERVICE STATE COLLEGE PA
200 AM EDT MON SEP 01 2014

Note: "fair" indicates few or no clouds below 12,000 feet with no
significant weather and/or obstructions to visibility.

* = STATION THAT DOES NOT REPORT PRECIPITATION /E.G. RAIN...SNOW...ETC/
    THUNDER OR FOG.

PAZ002>004-007>009-013>016-020>023-029>032-010700-
WESTERN PENNSYLVANIA

CITY           SKY/WX    TMP DP  RH WIND       PRES   REMARKS
ERIE           FAIR      71  67  87 S8        29.98S
MEADVILLE      CLOUDY    70  68  93 VRB3      30.03R FOG
FRANKLIN*      CLOUDY    70  66  88 SW5       30.05F
NEW CASTLE     CLOUDY    71  71 100 CALM      30.03S
BEAVER COUNTY  NOT AVBL
BUTLER*        CLOUDY    70  66  88 S6        30.05F
PITTSBURGH INT CLOUDY    71  69  93 SW6       30.03S
PITTSBURGH     MOCLDY    70  67  90 S5        30.03F
INDIANA*       CLOUDY    70  70 100 SW6       30.09S
LATROBE        MOCLDY    72  72 100 S6        30.05F
WASHINGTON CO* FAIR      68  66  94 S3        30.04F
$$

PAZ004>006-010>012-017>019-024>028-033>037-041-042-045-046-049>053-010700-
CENTRAL PENNSYLVANIA

CITY           SKY/WX    TMP DP  RH WIND       PRES   REMARKS
BRADFORD       CLOUDY    68  66  93 CALM      30.05F
DUBOIS         CLOUDY    69  68  96 SW6       30.04F
CLEARFIELD     LGT RAIN  68  68 100 CALM      30.05S FOG
JOHNSTOWN      CLOUDY    67  65  93 SW7       30.09S
ALTOONA        FAIR      69  66  90 SW3       30.06S
STATE COLLEGE  CLOUDY    69  67  94 CALM      30.03F
WILLIAMSPORT   FOG       68  66  93 CALM      30.00S VSB 1
SELINSGROVE    MOCLDY    68  66  93 CALM      30.01F FOG
FT INDIANTOWN  MOCLDY    70  70 100 CALM      30.02S
CAPITAL CITY   MOCLDY    71  69  93 CALM      30.01F
HARRISBURG     MOCLDY    73  70  90 CALM      30.00F
YORK           FAIR      71  69  93 CALM      30.02S
$$

PAZ038>040-043-044-047-048-054-055-060>062-067>071-010700-
EASTERN PENNSYLVANIA

CITY           SKY/WX    TMP DP  RH WIND       PRES   REMARKS
SCRANTON       MOCLDY    68  66  93 CALM      30.02S FOG
MOUNT POCONO   FAIR      67  65  93 W5        30.07S
ALLENTOWN      MOCLDY    73  71  93 CALM      30.01F
QUAKERTOWN*    CLOUDY    72  72 100 CALM      30.03F
READING        FAIR      74  71  91 CALM      30.01S
LANCASTER      MOCLDY    72  71  97 CALM      30.01F
COATESVILLE    FAIR      72  72 100 CALM      30.04S FOG
POTTSTOWN      FAIR      72  70  93 CALM      30.03F
BLUE BELL      FAIR      73  72  94 CALM      30.00F
DOYLESTOWN     LGT RAIN  72  72 100 SW5       30.01F
WILLOW GROVE   NOT AVBL
NORTH PHILA    LGT RAIN  75  70  84 SW3       30.02F
PHILADELPHIA   LGT RAIN  75  72  90 S6        30.01F
$$


USA.gov is the U.S. government's official web portal to all federal, state and local government web resources and services.